This demonstration page uses our WeatherBlox Daily Observations layout. Learn more.

Left ArrowRight Arrow

Hourly Observations for November 24, 2020

Temp ( °F °C ) Dew Point ( °F °C ) Humidity (%) Winds ( mph kmh ) Pressure ( in mb ) Visibility ( mi km ) Precip ( " mm )
12:25 am 00:25 Cloudy with Drizzle 37 2.8 32 0 82 82 SE 14 22 30.00 1016 3 5 0.00 0.00
12:52 am 00:52 Cloudy with Drizzle 37 2.8 34 1.1 89 89 SE 17 28 29.96 1015 3 5 0.00 0.00
1:52 am 01:52 Cloudy with Drizzle 38 3.3 36 2.2 93 93 SE 16 26 29.93 1014 3 4 0.00 0.00
2:52 am 02:52 Cloudy with Drizzle 38 3.3 36 2.2 93 93 SE 13 20 29.93 1013 3 4 0.00 0.00
3:52 am 03:52 Cloudy with Drizzle 39 3.9 37 2.8 93 93 SE 9 15 29.90 1013 2 2 0.02 0.51
4:38 am 04:38 Cloudy with Light Rain 39 3.9 37 2.8 93 93 SE 9 15 29.90 1012 2 3 0.03 0.76
4:52 am 04:52 Cloudy with Light Rain 39 3.9 37 2.8 93 93 SE 10 17 29.88 1012 2 3 0.04 1.02
5:52 am 05:52 Cloudy with Light Rain 40 4.4 38 3.3 93 93 SE 9 15 29.87 1012 3 4 0.02 0.51
6:22 am 06:22 Cloudy with Light Rain 40 4.4 38 3.3 93 93 SE 9 15 29.87 1012 3 5 0.01 0.25
6:52 am 06:52 Cloudy with Light Rain 41 5 39 3.9 93 93 SE 8 13 29.85 1011 4 6 0.02 0.51
7:36 am 07:36 Cloudy with Light Rain 41 5 39 3.9 93 93 SE 9 15 29.86 1011 3 4 0.02 0.51
7:52 am 07:52 Cloudy with Light Rain 41 5 39 3.9 93 93 SE 9 15 29.84 1011 3 4 0.02 0.51
8:52 am 08:52 Cloudy with Light Rain 42 5.6 40 4.4 92 92 SE 8 13 29.84 1011 3 4 0.03 0.76
9:52 am 09:52 Cloudy with Light Rain 43 6.1 41 5 93 93 SE 6 9 29.83 1010 2 3 0.04 1.02
10:52 am 10:52 Cloudy with Light Rain 44 6.7 42 5.6 93 93 SE 3 6 29.82 1010 2 3 0.02 0.51
11:52 am 11:52 Cloudy with Light Rain 44 6.7 42 5.6 93 93 N 5 7 29.81 1009 2 3 0.04 1.02
12:52 pm 12:52 Cloudy with Mist and Fog 44 6.7 43 6.1 96 96 NNE 6 9 29.79 1009 2 3 0.02 0.51
1:52 pm 13:52 Cloudy with Light Rain 44 6.7 43 6.1 96 96 NNW 9 15 29.79 1009 2 3 0.01 0.25
2:52 pm 14:52 Cloudy with Mist and Fog 44 6.7 43 6.1 96 96 N 12 19 29.79 1009 2 3 0.00 0.00
3:22 pm 15:22 Cloudy with Mist and Fog 44 6.7 43 6.1 96 96 NNW 13 20 29.80 1009 2 3 0.00 0.00
3:43 pm 15:43 Cloudy 44 6.7 43 6.1 96 96 NNW 14 22 29.81 1010 10 16 0.00 0.00
3:52 pm 15:52 Cloudy 43 6.1 43 6.1 100 100 N 13 20 29.80 1009 10 16 0.00 0.00
4:52 pm 16:52 Cloudy with Light Rain 40 4.4 38 3.3 93 93 NNW 16 26 29.81 1010 10 16 0.01 0.25
5:52 pm 17:52 Cloudy with Light Rain 40 4.4 38 3.3 93 93 NNW 10 17 29.85 1011 7 11 0.01 0.25
6:05 pm 18:05 Cloudy with Light Rain 40 4.4 38 3.3 93 93 NNW 12 19 29.87 1012 10 16 0.00 0.00
6:52 pm 18:52 Cloudy 40 4.4 38 3.3 93 93 NNW 9 15 29.86 1011 10 16 0.00 0.00
7:52 pm 19:52 Cloudy 40 4.4 38 3.3 93 93 NNW 10 17 29.88 1012 10 16 0.00 0.00
8:03 pm 20:03 Cloudy 40 4.4 38 3.3 93 93 NNW 14 22 29.89 1012 10 16 0.00 0.00
8:52 pm 20:52 Cloudy 38 3.3 35 1.7 89 89 N 20 31 29.85 1011 10 16 0.00 0.00
9:52 pm 21:52 Cloudy 37 2.8 33 0.6 86 86 N 21 33 29.85 1011 10 16 0.00 0.00
10:52 pm 22:52 Cloudy 37 2.8 33 0.6 86 86 N 14 22 29.85 1011 10 16 0.00 0.00
11:52 pm 23:52 Cloudy 36 2.2 33 0.6 89 89 N 15 24 29.86 1011 10 16 0.00 0.00

Powered by AerisWeather